SAS248 LFMN-EKCH

Flight info

Callsign SAS248
Flight time 2h 2m
Altitude 18000
Route BASIP Y15 ANAKI/N0446F360 DCT ROBAS DCT TAGIP DCT BRENO DCT KONIN DCT EXITI DCT EMBOX/N0451F370 DCT NOBRI/N0452F380 M726 ROSOK Q296 MONAK
Aircraft A320/M-SDE3FGHIRWY/LB1

Departure

Time 2026-05-08 08:00
Airport Nice-Côte d'Azur Airport (LFMN)

Arrival

Time 2026-05-08 10:02
Airport Copenhagen Kastrup Airport (EKCH)
Time Latitude Longitude Altitude Speed Heading
2026-05-08 07:44 43.65994 7.20715 21 ft 0 kts 259°
2026-05-08 07:50 43.65997 7.20736 -7 ft 4 kts 255°
2026-05-08 07:51 43.66006 7.20771 28 ft 4 kts 242°
2026-05-08 07:51 43.66021 7.20801 21 ft 4 kts 218°
2026-05-08 07:51 43.66040 7.20812 24 ft 1 kts 170°
2026-05-08 07:54 43.66039 7.20812 21 ft 1 kts 170°
2026-05-08 07:54 43.66014 7.20818 21 ft 6 kts 170°
2026-05-08 07:54 43.65962 7.20828 20 ft 9 kts 174°
2026-05-08 07:55 43.65895 7.20811 20 ft 11 kts 211°
2026-05-08 07:55 43.65833 7.20738 20 ft 12 kts 223°
2026-05-08 07:55 43.65767 7.20646 19 ft 15 kts 225°
2026-05-08 07:55 43.65683 7.20529 18 ft 18 kts 225°
2026-05-08 07:56 43.65606 7.20423 18 ft 15 kts 225°
2026-05-08 07:56 43.65527 7.20312 17 ft 17 kts 226°
2026-05-08 07:56 43.65454 7.20214 18 ft 12 kts 223°
2026-05-08 07:56 43.65375 7.20188 20 ft 13 kts 165°
2026-05-08 07:57 43.65295 7.20273 17 ft 16 kts 135°
2026-05-08 07:57 43.65214 7.20386 20 ft 16 kts 134°
2026-05-08 07:57 43.65121 7.20475 21 ft 17 kts 170°
2026-05-08 07:57 43.65016 7.20397 22 ft 18 kts 223°
2026-05-08 07:58 43.64922 7.20267 21 ft 20 kts 224°
2026-05-08 07:58 43.64835 7.20152 20 ft 9 kts 216°
2026-05-08 07:58 43.64769 7.20151 21 ft 10 kts 152°
2026-05-08 07:58 43.64717 7.20219 23 ft 10 kts 122°
2026-05-08 07:59 43.64722 7.20314 24 ft 11 kts 60°
2026-05-08 07:59 43.64804 7.20434 24 ft 40 kts 45°
2026-05-08 07:59 43.65195 7.20964 21 ft 115 kts 45°
2026-05-08 07:59 43.65892 7.21940 53 ft 165 kts 45°
2026-05-08 08:00 43.66697 7.23116 686 ft 171 kts 50°
2026-05-08 08:00 43.67190 7.24634 1361 ft 181 kts 83°
2026-05-08 08:00 43.66950 7.26434 1625 ft 205 kts 116°
2026-05-08 08:00 43.66134 7.28173 1907 ft 226 kts 124°
2026-05-08 08:01 43.65184 7.29886 2768 ft 222 kts 132°
2026-05-08 08:01 43.64144 7.31444 3642 ft 220 kts 123°
2026-05-08 08:01 43.63655 7.33403 4412 ft 219 kts 88°
2026-05-08 08:01 43.63980 7.35453 5183 ft 220 kts 72°
2026-05-08 08:02 43.64474 7.37456 5961 ft 221 kts 71°
2026-05-08 08:02 43.64996 7.39466 6716 ft 224 kts 70°
2026-05-08 08:02 43.65529 7.41498 7435 ft 226 kts 70°
2026-05-08 08:02 43.66069 7.43556 8151 ft 230 kts 70°
2026-05-08 08:03 43.66617 7.45648 8869 ft 233 kts 70°
2026-05-08 08:03 43.67169 7.47768 9597 ft 236 kts 70°
2026-05-08 08:03 43.67733 7.49925 10167 ft 247 kts 70°
2026-05-08 08:03 43.68343 7.52223 10417 ft 270 kts 70°
2026-05-08 08:04 43.69018 7.54760 10642 ft 293 kts 70°
2026-05-08 08:04 43.69751 7.57510 10829 ft 316 kts 70°
2026-05-08 08:04 43.70536 7.60464 10980 ft 339 kts 70°
2026-05-08 08:04 43.71362 7.63578 11415 ft 349 kts 70°
2026-05-08 08:05 43.72202 7.66759 12006 ft 355 kts 70°
2026-05-08 08:05 43.73081 7.69973 12613 ft 361 kts 66°
2026-05-08 08:05 43.74365 7.72993 13215 ft 367 kts 57°
2026-05-08 08:05 43.75754 7.75975 13849 ft 371 kts 58°
2026-05-08 08:06 43.77155 7.78998 14409 ft 375 kts 58°
2026-05-08 08:06 43.78571 7.82056 14980 ft 379 kts 58°
2026-05-08 08:06 43.79997 7.85135 15537 ft 382 kts 58°
2026-05-08 08:06 43.81442 7.88254 16092 ft 386 kts 57°
2026-05-08 08:07 43.82898 7.91398 16639 ft 390 kts 57°
2026-05-08 08:07 43.84375 7.94575 17204 ft 393 kts 57°
2026-05-08 08:07 43.85865 7.97774 17767 ft 398 kts 57°
2026-05-08 08:07 43.87372 8.01012 18348 ft 402 kts 57°
2026-05-08 08:08 43.88896 8.04291 18889 ft 407 kts 57°
2026-05-08 08:08 43.89912 8.06483 19254 ft 409 kts 57°
2026-05-08 08:08 43.91958 8.10913 19976 ft 415 kts 57°
2026-05-08 08:08 43.93521 8.14300 20501 ft 418 kts 57°
2026-05-08 08:09 43.95094 8.17715 20999 ft 422 kts 57°
2026-05-08 08:09 43.96874 8.20967 21453 ft 425 kts 44°
2026-05-08 08:09 43.99079 8.23714 21911 ft 428 kts 40°
2026-05-08 08:09 44.00570 8.25515 22207 ft 430 kts 40°
2026-05-08 08:10 44.02842 8.28247 22668 ft 433 kts 40°
2026-05-08 08:10 44.05130 8.30994 23112 ft 436 kts 39°
2026-05-08 08:10 44.07437 8.33768 23551 ft 439 kts 39°
2026-05-08 08:10 44.09750 8.36558 23924 ft 442 kts 40°
2026-05-08 08:11 44.12076 8.39373 24280 ft 444 kts 40°
2026-05-08 08:11 44.14413 8.42210 24642 ft 447 kts 40°
2026-05-08 08:11 44.16768 8.45068 24966 ft 450 kts 40°
2026-05-08 08:11 44.19138 8.47943 25310 ft 453 kts 40°
2026-05-08 08:12 44.21522 8.50836 25639 ft 455 kts 40°
2026-05-08 08:12 44.23919 8.53746 25964 ft 458 kts 40°
2026-05-08 08:12 44.26330 8.56679 26286 ft 461 kts 41°
2026-05-08 08:12 44.28749 8.59629 26601 ft 464 kts 41°
2026-05-08 08:13 44.31183 8.62606 26921 ft 466 kts 41°
2026-05-08 08:13 44.33595 8.65562 27233 ft 469 kts 41°
2026-05-08 08:13 44.36060 8.68579 27535 ft 472 kts 41°
2026-05-08 08:13 44.38535 8.71608 27833 ft 475 kts 41°
2026-05-08 08:14 44.41024 8.74658 28139 ft 477 kts 41°
2026-05-08 08:14 44.43528 8.77734 28507 ft 478 kts 41°
2026-05-08 08:14 44.46022 8.80808 28952 ft 478 kts 41°
2026-05-08 08:14 44.48522 8.83888 29364 ft 478 kts 41°
2026-05-08 08:15 44.51018 8.86959 29781 ft 479 kts 41°
2026-05-08 08:15 44.53522 8.90046 30188 ft 479 kts 41°
2026-05-08 08:15 44.56025 8.93140 30552 ft 479 kts 42°
2026-05-08 08:15 44.58528 8.96241 30907 ft 480 kts 42°
2026-05-08 08:16 44.61029 8.99348 31275 ft 481 kts 42°
2026-05-08 08:16 44.63533 9.02464 31645 ft 482 kts 42°
2026-05-08 08:16 44.66040 9.05580 32030 ft 482 kts 42°
2026-05-08 08:16 44.68553 9.08701 32409 ft 482 kts 42°
2026-05-08 08:17 44.71068 9.11827 32779 ft 483 kts 42°
2026-05-08 08:17 44.73554 9.14922 33128 ft 484 kts 42°
2026-05-08 08:17 44.76073 9.18067 33459 ft 485 kts 42°
2026-05-08 08:17 44.78591 9.21220 33819 ft 485 kts 43°
2026-05-08 08:18 44.81114 9.24384 34151 ft 486 kts 43°
2026-05-08 08:18 44.83639 9.27552 34461 ft 486 kts 42°
2026-05-08 08:18 44.86167 9.30727 34782 ft 485 kts 42°
2026-05-08 08:18 44.88686 9.33890 35112 ft 484 kts 42°
2026-05-08 08:19 44.91202 9.37053 35432 ft 483 kts 41°
2026-05-08 08:19 44.93707 9.40206 35781 ft 482 kts 41°
2026-05-08 08:19 44.96208 9.43360 36002 ft 482 kts 41°
2026-05-08 08:20 45.01235 9.49720 36059 ft 489 kts 41°
2026-05-08 08:20 45.06287 9.56115 36059 ft 491 kts 41°
2026-05-08 08:21 45.11373 9.62569 36058 ft 491 kts 41°
2026-05-08 08:21 45.16455 9.69042 36062 ft 491 kts 41°
2026-05-08 08:22 45.21541 9.75530 36064 ft 492 kts 41°
2026-05-08 08:22 45.26624 9.82033 36072 ft 492 kts 41°
2026-05-08 08:23 45.31710 9.88555 36078 ft 492 kts 41°
2026-05-08 08:23 45.36789 9.95094 36085 ft 492 kts 41°
2026-05-08 08:24 45.41861 10.01640 36093 ft 492 kts 41°
2026-05-08 08:24 45.46908 10.08169 36096 ft 492 kts 41°
2026-05-08 08:25 45.51970 10.14730 36097 ft 492 kts 41°
2026-05-08 08:25 45.57034 10.21309 36095 ft 492 kts 41°
2026-05-08 08:26 45.62099 10.27896 36093 ft 492 kts 41°
2026-05-08 08:26 45.67156 10.34491 36092 ft 492 kts 41°
2026-05-08 08:27 45.72207 10.41096 36089 ft 492 kts 41°
2026-05-08 08:27 45.77251 10.47716 36089 ft 492 kts 41°
2026-05-08 08:28 45.82251 10.54305 36095 ft 492 kts 41°
2026-05-08 08:28 45.87282 10.60953 36102 ft 492 kts 41°
2026-05-08 08:29 45.92395 10.67470 36108 ft 490 kts 34°
2026-05-08 08:29 45.98300 10.72183 36108 ft 485 kts 21°
2026-05-08 08:30 46.04474 10.76128 36115 ft 485 kts 21°
2026-05-08 08:30 46.13712 10.82119 36134 ft 486 kts 21°
2026-05-08 08:31 46.19875 10.86134 36143 ft 486 kts 21°
2026-05-08 08:31 46.26041 10.90133 36143 ft 486 kts 21°
2026-05-08 08:32 46.32199 10.94146 36151 ft 486 kts 21°
2026-05-08 08:32 46.38356 10.98172 36151 ft 486 kts 21°
2026-05-08 08:33 46.44528 11.02206 36145 ft 486 kts 21°
2026-05-08 08:33 46.50645 11.06222 36103 ft 486 kts 21°
2026-05-08 08:34 46.56808 11.10281 36110 ft 486 kts 21°
2026-05-08 08:34 46.62966 11.14346 36100 ft 486 kts 21°
2026-05-08 08:35 46.69125 11.18418 36111 ft 486 kts 21°
2026-05-08 08:35 46.75288 11.22508 36121 ft 486 kts 21°
2026-05-08 08:36 46.81444 11.26598 36132 ft 486 kts 21°
2026-05-08 08:36 46.87592 11.30694 36120 ft 485 kts 21°
2026-05-08 08:37 46.93694 11.34775 36118 ft 485 kts 20°
2026-05-08 08:37 47.00112 11.37359 36114 ft 475 kts
2026-05-08 08:38 47.06656 11.37574 36106 ft 469 kts 354°
2026-05-08 08:38 47.13184 11.37500 36102 ft 470 kts 355°
2026-05-08 08:39 47.19730 11.37445 36102 ft 470 kts 355°
2026-05-08 08:39 47.26273 11.37388 36101 ft 470 kts 355°
2026-05-08 08:40 47.32818 11.37330 36107 ft 470 kts 355°
2026-05-08 08:40 47.39352 11.37269 36110 ft 469 kts 355°
2026-05-08 08:41 47.45830 11.37209 36100 ft 468 kts 355°
2026-05-08 08:41 47.52352 11.37146 36098 ft 468 kts 355°
2026-05-08 08:42 47.58868 11.37074 36103 ft 468 kts 355°
2026-05-08 08:42 47.65376 11.37003 36108 ft 468 kts 355°
2026-05-08 08:43 47.71891 11.36938 36105 ft 467 kts 355°
2026-05-08 08:43 47.78388 11.36878 36112 ft 467 kts 355°
2026-05-08 08:44 47.84882 11.36814 36120 ft 466 kts 355°
2026-05-08 08:44 47.91367 11.36835 36128 ft 466 kts 356°
2026-05-08 08:45 47.97815 11.37029 36131 ft 466 kts 357°
2026-05-08 08:45 48.04297 11.37234 36138 ft 466 kts 357°
2026-05-08 08:46 48.10776 11.37387 36133 ft 465 kts 357°
2026-05-08 08:46 48.17246 11.37513 36133 ft 465 kts 357°
2026-05-08 08:47 48.23710 11.37653 36129 ft 464 kts 357°
2026-05-08 08:47 48.30173 11.37808 36126 ft 464 kts 357°
2026-05-08 08:48 48.36631 11.37949 36125 ft 464 kts 358°
2026-05-08 08:48 48.43040 11.38094 36127 ft 463 kts 358°
2026-05-08 08:49 48.49485 11.38240 36131 ft 463 kts 358°
2026-05-08 08:49 48.55923 11.38395 36132 ft 463 kts 358°
2026-05-08 08:50 48.62359 11.38551 36134 ft 462 kts 358°
2026-05-08 08:50 48.68793 11.38690 36132 ft 462 kts 358°
2026-05-08 08:51 48.75216 11.38838 36129 ft 462 kts 358°
2026-05-08 08:51 48.81648 11.38985 36134 ft 461 kts 358°
2026-05-08 08:52 48.88067 11.39123 36134 ft 461 kts 358°
2026-05-08 08:52 48.94483 11.39268 36141 ft 461 kts 358°
2026-05-08 08:53 49.00898 11.39422 36144 ft 461 kts 357°
2026-05-08 08:53 49.07313 11.39575 36149 ft 460 kts 357°
2026-05-08 08:54 49.13672 11.39727 36145 ft 460 kts 357°
2026-05-08 08:54 49.20081 11.39879 36147 ft 460 kts 357°
2026-05-08 08:55 49.26479 11.40023 36148 ft 460 kts 357°
2026-05-08 08:55 49.32874 11.40168 36152 ft 459 kts 357°
2026-05-08 08:56 49.39261 11.40322 36155 ft 459 kts 357°
2026-05-08 08:56 49.45649 11.40473 36151 ft 459 kts 357°
2026-05-08 08:57 49.52031 11.40619 36155 ft 458 kts 357°
2026-05-08 08:57 49.58409 11.40749 36151 ft 458 kts 356°
2026-05-08 08:58 49.64730 11.40639 36152 ft 457 kts 355°
2026-05-08 08:58 49.71086 11.40418 36151 ft 456 kts 355°
2026-05-08 08:59 49.77436 11.40241 36151 ft 456 kts 355°
2026-05-08 08:59 49.83788 11.40110 36151 ft 456 kts 355°
2026-05-08 09:00 49.89065 11.40008 36152 ft 456 kts 355°
2026-05-08 09:00 49.95416 11.39866 36155 ft 456 kts 355°
2026-05-08 09:01 50.01752 11.39715 36156 ft 456 kts 355°
2026-05-08 09:01 50.08099 11.39570 36161 ft 456 kts 355°
2026-05-08 09:02 50.14446 11.39436 36161 ft 455 kts 355°
2026-05-08 09:02 50.20782 11.39294 36164 ft 455 kts 355°
2026-05-08 09:03 50.27115 11.39146 36164 ft 455 kts 355°
2026-05-08 09:03 50.33409 11.39013 36167 ft 455 kts 356°
2026-05-08 09:04 50.39743 11.38875 36169 ft 455 kts 356°
2026-05-08 09:04 50.46083 11.38733 36174 ft 455 kts 356°
2026-05-08 09:05 50.52428 11.38588 36173 ft 455 kts 355°
2026-05-08 09:05 50.58758 11.38436 36178 ft 455 kts 356°
2026-05-08 09:06 50.65098 11.38291 36176 ft 455 kts 356°
2026-05-08 09:06 50.71398 11.38142 36177 ft 455 kts 356°
2026-05-08 09:07 50.77729 11.37992 36187 ft 455 kts 356°
2026-05-08 09:07 50.84055 11.37851 36187 ft 454 kts 356°
2026-05-08 09:08 50.90385 11.37706 36190 ft 454 kts 356°
2026-05-08 09:08 50.96705 11.37558 36186 ft 454 kts 356°
2026-05-08 09:09 51.03025 11.37418 36181 ft 454 kts 356°
2026-05-08 09:09 51.09344 11.37272 36185 ft 454 kts 356°
2026-05-08 09:10 51.15612 11.37127 36189 ft 454 kts 356°
2026-05-08 09:10 51.21927 11.36981 36192 ft 453 kts 356°
2026-05-08 09:11 51.28238 11.36828 36192 ft 453 kts 356°
2026-05-08 09:11 51.34548 11.36673 36191 ft 453 kts 356°
2026-05-08 09:12 51.40851 11.36524 36195 ft 453 kts 356°
2026-05-08 09:12 51.47163 11.36376 36192 ft 453 kts 356°
2026-05-08 09:13 51.53424 11.36231 36199 ft 453 kts 356°
2026-05-08 09:13 51.59727 11.36080 36200 ft 453 kts 356°
2026-05-08 09:14 51.66031 11.35942 36203 ft 453 kts 356°
2026-05-08 09:14 51.72326 11.35787 36207 ft 452 kts 356°
2026-05-08 09:15 51.78624 11.35628 36209 ft 452 kts 356°
2026-05-08 09:15 51.84926 11.35475 36209 ft 452 kts 356°
2026-05-08 09:16 51.91221 11.35327 36206 ft 452 kts 356°
2026-05-08 09:16 51.97518 11.35181 36203 ft 452 kts 356°
2026-05-08 09:17 52.03768 11.35029 36203 ft 452 kts 356°
2026-05-08 09:17 52.10064 11.35811 36199 ft 455 kts
2026-05-08 09:18 52.16351 11.37059 36198 ft 455 kts
2026-05-08 09:18 52.22641 11.38316 36197 ft 455 kts
2026-05-08 09:19 52.28926 11.39562 36200 ft 455 kts
2026-05-08 09:19 52.35207 11.40803 36200 ft 455 kts
2026-05-08 09:20 52.41496 11.42058 36200 ft 455 kts
2026-05-08 09:20 52.47784 11.43324 36200 ft 455 kts
2026-05-08 09:21 52.54075 11.44584 36199 ft 455 kts
2026-05-08 09:23 52.76054 11.49033 36202 ft 455 kts
2026-05-08 09:23 52.82346 11.50319 36202 ft 456 kts
2026-05-08 09:24 52.88639 11.51601 36204 ft 456 kts
2026-05-08 09:24 52.94937 11.52892 36200 ft 456 kts
2026-05-08 09:25 53.01242 11.54182 36204 ft 456 kts
2026-05-08 09:25 53.07553 11.55459 36202 ft 456 kts
2026-05-08 09:26 53.13857 11.56761 36203 ft 456 kts
2026-05-08 09:26 53.20161 11.58084 36206 ft 457 kts
2026-05-08 09:27 53.26401 11.59742 36206 ft 459 kts 14°
2026-05-08 09:27 53.32520 11.62767 36208 ft 459 kts 15°
2026-05-08 09:28 53.38644 11.65815 36211 ft 459 kts 15°
2026-05-08 09:28 53.44776 11.68867 36209 ft 459 kts 15°
2026-05-08 09:29 53.50905 11.71928 36210 ft 459 kts 15°
2026-05-08 09:29 53.57030 11.74997 36212 ft 459 kts 15°
2026-05-08 09:30 53.63149 11.78079 36217 ft 459 kts 15°
2026-05-08 09:30 53.69230 11.81153 36216 ft 459 kts 15°
2026-05-08 09:30 53.72294 11.82709 36077 ft 459 kts 15°
2026-05-08 09:31 53.75349 11.84261 35834 ft 458 kts 15°
2026-05-08 09:31 53.78405 11.85793 35588 ft 457 kts 14°
2026-05-08 09:31 53.81483 11.87163 35351 ft 456 kts 12°
2026-05-08 09:31 53.84568 11.88366 35110 ft 455 kts 11°
2026-05-08 09:32 53.87653 11.89587 34875 ft 455 kts 14°
2026-05-08 09:32 53.90696 11.91094 34640 ft 455 kts 15°
2026-05-08 09:32 53.93721 11.92692 34402 ft 455 kts 16°
2026-05-08 09:32 53.96726 11.94344 34166 ft 454 kts 17°
2026-05-08 09:33 53.99736 11.96024 33891 ft 454 kts 17°
2026-05-08 09:33 54.02738 11.97697 33617 ft 454 kts 17°
2026-05-08 09:33 54.05741 11.99355 33341 ft 454 kts 17°
2026-05-08 09:33 54.08753 12.00997 33065 ft 454 kts 16°
2026-05-08 09:34 54.11766 12.02628 32802 ft 455 kts 16°
2026-05-08 09:34 54.14750 12.04241 32539 ft 455 kts 16°
2026-05-08 09:34 54.17808 12.05896 32273 ft 455 kts 16°
2026-05-08 09:34 54.20788 12.07512 31333 ft 459 kts 17°
2026-05-08 09:35 54.23862 12.09186 30072 ft 467 kts 17°
2026-05-08 09:35 54.26984 12.10891 28672 ft 473 kts 17°
2026-05-08 09:35 54.30100 12.12598 27930 ft 466 kts 17°
2026-05-08 09:35 54.33156 12.14281 27252 ft 459 kts 17°
2026-05-08 09:36 54.36177 12.15948 26565 ft 452 kts 17°
2026-05-08 09:36 54.39155 12.17594 25885 ft 446 kts 17°
2026-05-08 09:36 54.42058 12.19193 25229 ft 431 kts 17°
2026-05-08 09:36 54.44907 12.20764 24585 ft 428 kts 17°
2026-05-08 09:37 54.47735 12.22328 23947 ft 425 kts 17°
2026-05-08 09:37 54.50544 12.23884 23233 ft 422 kts 17°
2026-05-08 09:37 54.53325 12.25428 22633 ft 417 kts 17°
2026-05-08 09:37 54.56036 12.26938 22023 ft 413 kts 18°
2026-05-08 09:38 54.58758 12.28460 21440 ft 409 kts 18°
2026-05-08 09:38 54.61457 12.29967 20867 ft 406 kts 18°
2026-05-08 09:38 54.64130 12.31459 20324 ft 403 kts 18°
2026-05-08 09:38 54.66788 12.32942 19779 ft 400 kts 18°
2026-05-08 09:39 54.69430 12.34419 19253 ft 398 kts 18°
2026-05-08 09:39 54.72054 12.35889 18715 ft 396 kts 18°
2026-05-08 09:39 54.74670 12.37378 18111 ft 394 kts 19°
2026-05-08 09:39 54.77248 12.38969 17486 ft 392 kts 20°
2026-05-08 09:40 54.79784 12.40634 17150 ft 385 kts 21°
2026-05-08 09:40 54.82272 12.42320 16890 ft 384 kts 22°
2026-05-08 09:40 54.84753 12.44012 16628 ft 382 kts 22°
2026-05-08 09:40 54.87222 12.45690 16364 ft 380 kts 21°
2026-05-08 09:41 54.89684 12.47346 16111 ft 379 kts 21°
2026-05-08 09:41 54.92140 12.48981 15859 ft 377 kts 21°
2026-05-08 09:41 54.94589 12.50603 15604 ft 376 kts 21°
2026-05-08 09:41 54.97026 12.52220 15358 ft 374 kts 21°
2026-05-08 09:42 54.99455 12.53834 15110 ft 373 kts 21°
2026-05-08 09:42 55.01875 12.55444 14862 ft 372 kts 21°
2026-05-08 09:42 55.04290 12.57051 14617 ft 371 kts 22°
2026-05-08 09:42 55.06668 12.58639 14379 ft 369 kts 22°
2026-05-08 09:43 55.09061 12.60244 14135 ft 368 kts 22°
2026-05-08 09:43 55.11449 12.61851 13875 ft 367 kts 22°
2026-05-08 09:43 55.13824 12.63449 13604 ft 365 kts 22°
2026-05-08 09:43 55.16192 12.65039 13333 ft 364 kts 22°
2026-05-08 09:44 55.18547 12.66622 13067 ft 362 kts 22°
2026-05-08 09:44 55.20892 12.68201 12803 ft 360 kts 22°
2026-05-08 09:44 55.23226 12.69773 12543 ft 359 kts 22°
2026-05-08 09:44 55.25547 12.71340 12204 ft 355 kts 23°
2026-05-08 09:45 55.27840 12.72891 11650 ft 351 kts 23°
2026-05-08 09:45 55.30109 12.74425 11092 ft 348 kts 23°
2026-05-08 09:45 55.32328 12.75927 10911 ft 334 kts 23°
2026-05-08 09:45 55.34454 12.77373 10792 ft 321 kts 24°
2026-05-08 09:46 55.36495 12.78765 10660 ft 309 kts 24°
2026-05-08 09:46 55.38462 12.80106 10544 ft 298 kts 24°
2026-05-08 09:46 55.40366 12.81406 10342 ft 291 kts 24°
2026-05-08 09:46 55.42233 12.82681 10186 ft 286 kts 24°
2026-05-08 09:47 55.44094 12.83922 9940 ft 286 kts 20°
2026-05-08 09:47 55.46024 12.84789 9675 ft 285 kts 16°
2026-05-08 09:47 55.47955 12.85548 9403 ft 284 kts 15°
2026-05-08 09:47 55.49848 12.86284 9141 ft 282 kts 15°
2026-05-08 09:48 55.51768 12.87013 8792 ft 282 kts 13°
2026-05-08 09:48 55.53717 12.87488 8402 ft 283 kts
2026-05-08 09:48 55.55674 12.87891 8010 ft 282 kts
2026-05-08 09:48 55.57595 12.88273 7558 ft 274 kts
2026-05-08 09:49 55.59466 12.88609 7109 ft 266 kts
2026-05-08 09:49 55.61300 12.88435 6659 ft 262 kts 356°
2026-05-08 09:49 55.63090 12.88025 6180 ft 257 kts 355°
2026-05-08 09:49 55.64842 12.87592 5712 ft 252 kts 355°
2026-05-08 09:50 55.65984 12.87307 5411 ft 248 kts 355°
2026-05-08 09:50 55.68295 12.86481 4777 ft 265 kts 345°
2026-05-08 09:50 55.69957 12.84978 4311 ft 272 kts 330°
2026-05-08 09:50 55.71528 12.83062 3841 ft 277 kts 320°
2026-05-08 09:51 55.72369 12.81273 3528 ft 282 kts 301°
2026-05-08 09:51 55.72945 12.77951 3052 ft 285 kts 272°
2026-05-08 09:51 55.72613 12.74515 2589 ft 285 kts 244°
2026-05-08 09:51 55.71440 12.71857 2349 ft 273 kts 212°
2026-05-08 09:52 55.69764 12.70645 2250 ft 253 kts 187°
2026-05-08 09:52 55.68067 12.70530 1791 ft 238 kts 175°
2026-05-08 09:52 55.66463 12.70702 1529 ft 229 kts 179°
2026-05-08 09:52 55.64789 12.70197 1436 ft 263 kts 200°
2026-05-08 09:53 55.63146 12.68339 1550 ft 293 kts 217°
2026-05-08 09:53 55.61533 12.66024 1828 ft 309 kts 213°
2026-05-08 09:53 55.59756 12.63710 1979 ft 318 kts 218°
2026-05-08 09:53 55.58084 12.61324 2892 ft 301 kts 216°
2026-05-08 09:54 55.56451 12.58943 3164 ft 314 kts 221°
2026-05-08 09:54 55.54873 12.56319 3167 ft 297 kts 218°
2026-05-08 09:54 55.53195 12.54722 3175 ft 263 kts 193°
2026-05-08 09:54 55.51442 12.53986 3178 ft 260 kts 189°
2026-05-08 09:55 55.49064 12.53171 3175 ft 258 kts 182°
2026-05-08 09:55 55.47897 12.53298 3173 ft 253 kts 162°
2026-05-08 09:55 55.46382 12.54737 3118 ft 248 kts 134°
2026-05-08 09:55 55.45509 12.57251 2898 ft 239 kts 104°
2026-05-08 09:56 55.45524 12.60105 2691 ft 233 kts 73°
2026-05-08 09:56 55.46386 12.62459 2491 ft 230 kts 46°
2026-05-08 09:56 55.47593 12.64271 2281 ft 225 kts 41°
2026-05-08 09:56 55.48813 12.65957 2096 ft 220 kts 40°
2026-05-08 09:57 55.51216 12.69226 2011 ft 220 kts 40°
2026-05-08 09:57 55.52428 12.70878 2012 ft 221 kts 40°
2026-05-08 09:57 55.53627 12.72517 2011 ft 211 kts 40°
2026-05-08 09:58 55.54757 12.74060 2010 ft 202 kts 40°
2026-05-08 09:58 55.55866 12.75572 2015 ft 201 kts 40°
2026-05-08 09:58 55.56972 12.77076 2013 ft 201 kts 40°
2026-05-08 09:58 55.58081 12.78582 2013 ft 201 kts 40°
2026-05-08 09:59 55.59188 12.80082 2010 ft 197 kts 40°
2026-05-08 09:59 55.60269 12.81486 2011 ft 191 kts 31°
2026-05-08 09:59 55.61570 12.81895 2011 ft 196 kts 351°
2026-05-08 09:59 55.62787 12.80814 1998 ft 201 kts 322°
2026-05-08 10:00 55.63801 12.79119 1786 ft 196 kts 312°
2026-05-08 10:00 55.64587 12.77281 1593 ft 180 kts 297°
2026-05-08 10:00 55.64809 12.75304 1574 ft 158 kts 265°
2026-05-08 10:00 55.64729 12.73424 1307 ft 149 kts 261°
2026-05-08 10:01 55.64573 12.71645 994 ft 144 kts 255°
2026-05-08 10:01 55.64251 12.70005 690 ft 138 kts 239°
2026-05-08 10:01 55.63729 12.68624 448 ft 134 kts 223°
2026-05-08 10:01 55.63046 12.67552 245 ft 131 kts 218°
2026-05-08 10:02 55.62363 12.66481 50 ft 130 kts 218°
2026-05-08 10:02 55.61762 12.65549 17 ft 90 kts 220°
2026-05-08 10:02 55.61445 12.65065 17 ft 33 kts 223°
2026-05-08 10:02 55.61307 12.64801 18 ft 30 kts 235°
2026-05-08 10:03 55.61224 12.64473 17 ft 29 kts 249°
2026-05-08 10:03 55.61184 12.64214 17 ft 18 kts 274°
2026-05-08 10:03 55.61283 12.64121 17 ft 20 kts 21°
2026-05-08 10:03 55.61407 12.64258 17 ft 23 kts 33°
2026-05-08 10:04 55.61547 12.64421 17 ft 26 kts 33°
2026-05-08 10:04 55.61684 12.64580 19 ft 15 kts 34°
2026-05-08 10:04 55.61783 12.64693 17 ft 18 kts 33°
2026-05-08 10:04 55.61900 12.64828 19 ft 22 kts 33°
2026-05-08 10:05 55.62032 12.64980 18 ft 20 kts 32°
2026-05-08 10:05 55.62147 12.65111 19 ft 21 kts 33°
2026-05-08 10:05 55.62262 12.65198 17 ft 19 kts
2026-05-08 10:05 55.62403 12.65203 19 ft 21 kts 359°
2026-05-08 10:06 55.62526 12.65198 17 ft 17 kts 359°
2026-05-08 10:06 55.62608 12.65195 19 ft 10 kts
2026-05-08 10:06 55.62650 12.65260 17 ft 5 kts 70°
2026-05-08 10:06 55.62680 12.65306 17 ft 7 kts 18°
2026-05-08 10:07 55.62710 12.65322 17 ft 3 kts 17°
2026-05-08 10:07 55.62720 12.65327 17 ft 0 kts 17°